| time (UTC) | temp C | wind direction | speed KPH | gust KPH | rain 1hr cm | rain 24hr cm | rain mn cm | humidity % | barometer mb |
| 20260505170510 | 25 | 130 | 1.6 | 1.6 | 0.00 | 0.00 | 0.00 | 82 | 1007.2 |
| 20260505170007 | 25 | 69 | 0.0 | 0.0 | 0.00 | 0.00 | 0.00 | 82 | 1007.2 |
| 20260505165502 | 25 | 128 | 0.0 | 0.0 | 0.00 | 0.00 | 0.00 | 82 | 1007.1 |
| 20260505164958 | 24 | 119 | 0.0 | 1.6 | 0.00 | 0.00 | 0.00 | 83 | 1007.1 |
| 20260505164454 | 25 | 146 | 0.0 | 1.6 | 0.00 | 0.00 | 0.00 | 83 | 1007.3 |
| 20260505163952 | 24 | 119 | 0.0 | 0.0 | 0.00 | 0.00 | 0.00 | 83 | 1007.1 |
| 20260505163451 | 24 | 143 | 1.6 | 1.6 | 0.00 | 0.00 | 0.00 | 83 | 1007.3 |
| 20260505162950 | 24 | 92 | 0.0 | 0.0 | 0.00 | 0.00 | 0.00 | 83 | 1007.1 |
| 20260505162445 | 24 | 109 | 0.0 | 0.0 | 0.00 | 0.00 | 0.00 | 84 | 1007.3 |
| 20260505161942 | 24 | 107 | 0.0 | 0.0 | 0.00 | 0.00 | 0.00 | 84 | 1007.1 |
| 20260505161439 | 24 | 115 | 0.0 | 0.0 | 0.00 | 0.00 | 0.00 | 84 | 1007.2 |
| 20260505160936 | 23 | 114 | 1.6 | 1.6 | 0.00 | 0.00 | 0.00 | 83 | 1007.2 |
| 20260505160435 | 23 | 129 | 0.0 | 0.0 | 0.00 | 0.00 | 0.00 | 84 | 1006.9 |
| 20260505152911 | 22 | 106 | 0.0 | 0.0 | 0.00 | 0.00 | 0.00 | 86 | 1007.2 |
| 20260505152408 | 22 | 97 | 0.0 | 1.6 | 0.00 | 0.00 | 0.00 | 87 | 1007.2 |
| 20260505151908 | 22 | 111 | 0.0 | 1.6 | 0.00 | 0.00 | 0.00 | 86 | 1006.9 |
| 20260505151404 | 22 | 102 | 0.0 | 1.6 | 0.00 | 0.00 | 0.00 | 86 | 1007.0 |
| 20260505150901 | 22 | 142 | 1.6 | 1.6 | 0.00 | 0.00 | 0.00 | 86 | 1006.8 |
| 20260505150358 | 22 | 109 | 0.0 | 0.0 | 0.00 | 0.00 | 0.00 | 86 | 1006.9 |
| 20260505140323 | 22 | 117 | 0.0 | 0.0 | 0.00 | 0.00 | 0.00 | 86 | 1007.2 |
| 20260505130246 | 21 | 118 | 0.0 | 0.0 | 0.00 | 0.00 | 0.00 | 89 | 1007.0 |
| 20260505124737 | 21 | 127 | 0.0 | 1.6 | 0.00 | 0.00 | 0.00 | 89 | 1006.8 |
| 20260505124234 | 21 | 119 | 0.0 | 0.0 | 0.00 | 0.00 | 0.00 | 89 | 1006.8 |
| 20260505123729 | 21 | 161 | 0.0 | 0.0 | 0.00 | 0.00 | 0.00 | 89 | 1006.5 |
| 20260505123226 | 21 | 140 | 0.0 | 0.0 | 0.00 | 0.00 | 0.00 | 89 | 1006.8 |
| 20260505122723 | 21 | 130 | 1.6 | 1.6 | 0.00 | 0.00 | 0.00 | 89 | 1006.6 |
| 20260505122220 | 21 | 120 | 1.6 | 1.6 | 0.00 | 0.00 | 0.00 | 89 | 1006.7 |
| 20260505121716 | 21 | 122 | 0.0 | 0.0 | 0.00 | 0.00 | 0.00 | 89 | 1006.7 |
| 20260505121213 | 21 | 117 | 0.0 | 0.0 | 0.00 | 0.00 | 0.00 | 89 | 1006.5 |
| 20260505120710 | 21 | 111 | 0.0 | 1.6 | 0.00 | 0.00 | 0.00 | 89 | 1006.5 |
| 20260505120205 | 21 | 131 | 1.6 | 1.6 | 0.00 | 0.00 | 0.00 | 89 | 1006.3 |
| 20260505115659 | 21 | 156 | 1.6 | 1.6 | 0.00 | 0.00 | 0.00 | 89 | 1006.1 |
| 20260505115157 | 21 | 117 | 0.0 | 0.0 | 0.00 | 0.00 | 0.00 | 89 | 1006.1 |
| 20260505114654 | 21 | 139 | 1.6 | 1.6 | 0.00 | 0.00 | 0.00 | 89 | 1006.0 |
| 20260505114150 | 21 | 104 | 0.0 | 0.0 | 0.00 | 0.00 | 0.00 | 89 | 1006.1 |
| 20260505113647 | 21 | 114 | 0.0 | 0.0 | 0.00 | 0.00 | 0.00 | 89 | 1006.3 |
| 20260505113143 | 21 | 118 | 0.0 | 0.0 | 0.00 | 0.00 | 0.00 | 89 | 1006.3 |
| 20260505112640 | 21 | 132 | 0.0 | 1.6 | 0.00 | 0.00 | 0.00 | 89 | 1006.2 |
| 20260505112138 | 21 | 138 | 0.0 | 1.6 | 0.00 | 0.00 | 0.00 | 89 | 1006.3 |
| 20260505111637 | 21 | 121 | 0.0 | 0.0 | 0.00 | 0.00 | 0.00 | 89 | 1006.4 |
| 20260505111133 | 21 | 122 | 0.0 | 0.0 | 0.00 | 0.00 | 0.00 | 89 | 1006.3 |
| 20260505110630 | 21 | 143 | 1.6 | 1.6 | 0.00 | 0.00 | 0.00 | 89 | 1006.4 |
| 20260505110127 | 21 | 132 | 0.0 | 1.6 | 0.00 | 0.00 | 0.00 | 89 | 1006.5 |
| 20260505102103 | 20 | 123 | 3.2 | 3.2 | 0.00 | 0.00 | 0.00 | 89 | 1006.0 |
| 20260505101601 | 20 | 132 | 0.0 | 1.6 | 0.00 | 0.00 | 0.00 | 89 | 1005.9 |
| 20260505101057 | 20 | 120 | 0.0 | 0.0 | 0.00 | 0.00 | 0.00 | 88 | 1006.4 |
| 20260505100554 | 20 | 129 | 1.6 | 1.6 | 0.00 | 0.00 | 0.00 | 88 | 1006.1 |
| 20260505100051 | 20 | 140 | 0.0 | 0.0 | 0.00 | 0.00 | 0.00 | 89 | 1006.3 |
| 20260505095547 | 20 | 106 | 0.0 | 0.0 | 0.00 | 0.00 | 0.00 | 89 | 1006.2 |
| 20260505095043 | 20 | 124 | 0.0 | 0.0 | 0.00 | 0.00 | 0.00 | 88 | 1006.2 |
| 20260505094540 | 20 | 118 | 0.0 | 0.0 | 0.00 | 0.00 | 0.00 | 88 | 1005.8 |
| 20260505094036 | 20 | 112 | 0.0 | 0.0 | 0.00 | 0.00 | 0.00 | 88 | 1006.1 |
| 20260505093533 | 20 | 142 | 0.0 | 1.6 | 0.00 | 0.00 | 0.00 | 88 | 1006.0 |
| 20260505093030 | 20 | 147 | 0.0 | 0.0 | 0.00 | 0.00 | 0.00 | 89 | 1006.2 |
| 20260505092527 | 20 | 121 | 0.0 | 1.6 | 0.00 | 0.00 | 0.00 | 89 | 1006.2 |
| 20260505092026 | 20 | 120 | 0.0 | 0.0 | 0.00 | 0.00 | 0.00 | 89 | 1006.3 |
| 20260505091522 | 20 | 134 | 1.6 | 1.6 | 0.00 | 0.00 | 0.00 | 89 | 1006.4 |
| 20260505091020 | 20 | 134 | 0.0 | 1.6 | 0.00 | 0.00 | 0.00 | 89 | 1006.7 |
| 20260505090518 | 20 | 157 | 0.0 | 1.6 | 0.00 | 0.00 | 0.00 | 89 | 1006.6 |
| 20260505090016 | 20 | 128 | 0.0 | 0.0 | 0.00 | 0.00 | 0.00 | 89 | 1006.7 |
| 20260505085514 | 20 | 122 | 0.0 | 0.0 | 0.00 | 0.00 | 0.00 | 89 | 1006.6 |
| 20260505085012 | 20 | 129 | 0.0 | 0.0 | 0.00 | 0.00 | 0.00 | 89 | 1006.8 |
| 20260505084510 | 20 | 121 | 0.0 | 1.6 | 0.00 | 0.00 | 0.00 | 89 | 1006.8 |
| 20260505084007 | 20 | 124 | 1.6 | 1.6 | 0.00 | 0.00 | 0.00 | 89 | 1006.8 |
| 20260505083504 | 20 | 131 | 0.0 | 1.6 | 0.00 | 0.00 | 0.00 | 90 | 1007.0 |
| 20260505083001 | 20 | 129 | 0.0 | 0.0 | 0.00 | 0.00 | 0.00 | 90 | 1007.0 |
| 20260505082456 | 20 | 122 | 1.6 | 1.6 | 0.00 | 0.00 | 0.00 | 90 | 1006.8 |
| 20260505081953 | 20 | 113 | 0.0 | 0.0 | 0.00 | 0.00 | 0.00 | 90 | 1007.0 |
| 20260505081450 | 20 | 120 | 0.0 | 0.0 | 0.00 | 0.00 | 0.00 | 90 | 1007.2 |
| 20260505080946 | 20 | 116 | 0.0 | 0.0 | 0.00 | 0.00 | 0.00 | 90 | 1006.9 |
| 20260505080443 | 20 | 111 | 0.0 | 0.0 | 0.00 | 0.00 | 0.00 | 90 | 1007.1 |
| 20260505075938 | 20 | 125 | 0.0 | 0.0 | 0.00 | 0.00 | 0.00 | 90 | 1007.0 |
| 20260505075435 | 20 | 127 | 0.0 | 0.0 | 0.00 | 0.00 | 0.00 | 90 | 1007.3 |
| 20260505074933 | 20 | 112 | 0.0 | 0.0 | 0.00 | 0.00 | 0.00 | 89 | 1007.2 |
| 20260505074430 | 20 | 131 | 1.6 | 1.6 | 0.00 | 0.00 | 0.00 | 90 | 1007.2 |
| 20260505073927 | 20 | 121 | 0.0 | 1.6 | 0.00 | 0.00 | 0.00 | 90 | 1007.3 |
| 20260505073425 | 20 | 124 | 0.0 | 0.0 | 0.00 | 0.00 | 0.00 | 90 | 1007.3 |
| 20260505072921 | 20 | 131 | 0.0 | 0.0 | 0.00 | 0.00 | 0.00 | 89 | 1007.5 |
| 20260505072418 | 20 | 127 | 0.0 | 0.0 | 0.00 | 0.00 | 0.00 | 89 | 1007.5 |
| 20260505071914 | 20 | 121 | 0.0 | 0.0 | 0.00 | 0.00 | 0.00 | 89 | 1007.5 |
| 20260505071410 | 20 | 123 | 0.0 | 0.0 | 0.00 | 0.00 | 0.00 | 89 | 1007.7 |
| 20260505070908 | 20 | 116 | 0.0 | 0.0 | 0.00 | 0.00 | 0.00 | 89 | 1007.7 |
| 20260505070404 | 20 | 115 | 0.0 | 0.0 | 0.00 | 0.00 | 0.00 | 89 | 1007.6 |
| 20260505065900 | 20 | 117 | 0.0 | 0.0 | 0.00 | 0.00 | 0.00 | 89 | 1007.6 |
| 20260505065357 | 20 | 117 | 0.0 | 0.0 | 0.00 | 0.00 | 0.00 | 88 | 1007.5 |
| 20260505064854 | 20 | 117 | 0.0 | 0.0 | 0.00 | 0.00 | 0.00 | 88 | 1007.6 |
| 20260505064351 | 20 | 135 | 0.0 | 1.6 | 0.00 | 0.00 | 0.00 | 88 | 1007.7 |
| 20260505063850 | 20 | 116 | 0.0 | 0.0 | 0.00 | 0.00 | 0.00 | 88 | 1007.9 |
| 20260505063345 | 20 | 119 | 0.0 | 0.0 | 0.00 | 0.00 | 0.00 | 88 | 1008.1 |
| 20260505062842 | 20 | 118 | 0.0 | 0.0 | 0.00 | 0.00 | 0.00 | 88 | 1007.9 |
| 20260505062339 | 20 | 124 | 0.0 | 0.0 | 0.00 | 0.00 | 0.00 | 87 | 1008.2 |
| 20260505061836 | 20 | 165 | 0.0 | 1.6 | 0.00 | 0.00 | 0.00 | 87 | 1008.1 |
| 20260505061334 | 20 | 102 | 0.0 | 0.0 | 0.00 | 0.00 | 0.00 | 87 | 1008.2 |
| 20260505060831 | 20 | 100 | 0.0 | 0.0 | 0.00 | 0.00 | 0.00 | 86 | 1008.1 |
| 20260505060328 | 20 | 110 | 0.0 | 0.0 | 0.00 | 0.00 | 0.00 | 86 | 1008.1 |
| 20260505055824 | 20 | 117 | 0.0 | 0.0 | 0.00 | 0.00 | 0.00 | 85 | 1008.0 |
| 20260505055320 | 20 | 116 | 0.0 | 0.0 | 0.00 | 0.00 | 0.00 | 85 | 1008.0 |
| 20260505054818 | 20 | 124 | 0.0 | 1.6 | 0.00 | 0.00 | 0.00 | 85 | 1008.2 |
| 20260505054315 | 20 | 115 | 0.0 | 1.6 | 0.00 | 0.00 | 0.00 | 85 | 1008.2 |
| 20260505053813 | 20 | 119 | 0.0 | 0.0 | 0.00 | 0.00 | 0.00 | 85 | 1008.4 |
| 20260505053310 | 20 | 114 | 0.0 | 0.0 | 0.00 | 0.00 | 0.00 | 84 | 1008.3 |
| 20260505052806 | 20 | 93 | 0.0 | 0.0 | 0.00 | 0.00 | 0.00 | 84 | 1008.2 |
| 20260505052304 | 20 | 130 | 0.0 | 0.0 | 0.00 | 0.00 | 0.00 | 84 | 1008.2 |
| 20260505051800 | 20 | 101 | 0.0 | 0.0 | 0.00 | 0.00 | 0.00 | 83 | 1008.3 |
| 20260505051258 | 20 | 106 | 0.0 | 0.0 | 0.00 | 0.00 | 0.00 | 84 | 1008.4 |
| 20260505050756 | 20 | 105 | 0.0 | 0.0 | 0.00 | 0.00 | 0.00 | 83 | 1008.4 |
| 20260505050254 | 20 | 118 | 0.0 | 0.0 | 0.00 | 0.00 | 0.00 | 82 | 1008.4 |
| 20260505041729 | 21 | 89 | 0.0 | 0.0 | 0.00 | 0.05 | 0.05 | 82 | 1008.2 |
| 20260505041226 | 21 | 115 | 0.0 | 0.0 | 0.00 | 0.05 | 0.05 | 81 | 1008.2 |
| 20260505040724 | 21 | 112 | 0.0 | 0.0 | 0.00 | 0.05 | 0.05 | 81 | 1008.7 |
| 20260505040220 | 21 | 103 | 1.6 | 1.6 | 0.00 | 0.05 | 0.05 | 81 | 1008.4 |
| 20260505035718 | 21 | 112 | 0.0 | 0.0 | 0.00 | 0.05 | 0.05 | 80 | 1008.6 |
| 20260505035213 | 21 | 118 | 0.0 | 0.0 | 0.00 | 0.05 | 0.05 | 80 | 1008.5 |
| 20260505034710 | 21 | 107 | 0.0 | 0.0 | 0.13 | 0.05 | 0.05 | 79 | 1008.7 |
| 20260505034207 | 21 | 133 | 0.0 | 1.6 | 0.13 | 0.05 | 0.05 | 79 | 1008.7 |
| 20260505033703 | 21 | 126 | 0.0 | 1.6 | 0.00 | 0.03 | 0.03 | 79 | 1008.5 |
| 20260505033202 | 21 | 111 | 0.0 | 0.0 | 0.00 | 0.03 | 0.03 | 78 | 1008.3 |
| 20260505032659 | 21 | 103 | 0.0 | 0.0 | 0.00 | 0.03 | 0.03 | 77 | 1008.2 |
| 20260505032155 | 21 | 117 | 0.0 | 0.0 | 0.00 | 0.03 | 0.03 | 76 | 1008.2 |
| 20260505031653 | 21 | 111 | 0.0 | 1.6 | 0.00 | 0.03 | 0.03 | 76 | 1008.3 |
| 20260505031149 | 21 | 104 | 1.6 | 1.6 | 0.00 | 0.03 | 0.03 | 76 | 1008.1 |
| 20260505030646 | 21 | 112 | 1.6 | 1.6 | 0.00 | 0.03 | 0.03 | 76 | 1007.9 |
| 20260505030141 | 21 | 117 | 0.0 | 1.6 | 0.00 | 0.03 | 0.03 | 76 | 1008.2 |
| 20260505025638 | 21 | 107 | 0.0 | 0.0 | 0.00 | 0.03 | 0.03 | 78 | 1008.1 |
| 20260505025136 | 21 | 99 | 0.0 | 0.0 | 0.00 | 0.03 | 0.03 | 76 | 1008.2 |
| 20260505024634 | 21 | 103 | 0.0 | 0.0 | 0.00 | 0.03 | 0.03 | 76 | 1008.0 |
| 20260505024131 | 21 | 116 | 0.0 | 0.0 | 0.00 | 0.03 | 0.03 | 76 | 1007.8 |
| 20260505023628 | 21 | 113 | 0.0 | 0.0 | 0.00 | 0.03 | 0.03 | 76 | 1008.2 |
| 20260505023125 | 20 | 122 | 0.0 | 0.0 | 0.00 | 0.03 | 0.03 | 80 | 1008.1 |
| 20260505022623 | 20 | 105 | 0.0 | 0.0 | 0.00 | 0.03 | 0.03 | 80 | 1008.4 |
| 20260505022119 | 20 | 117 | 0.0 | 0.0 | 0.00 | 0.03 | 0.03 | 79 | 1008.2 |
| 20260505021616 | 21 | 113 | 0.0 | 0.0 | 0.00 | 0.03 | 0.03 | 79 | 1008.1 |
| 20260505021113 | 21 | 115 | 0.0 | 0.0 | 0.00 | 0.03 | 0.03 | 78 | 1008.4 |
| 20260505020608 | 21 | 115 | 0.0 | 0.0 | 0.00 | 0.03 | 0.03 | 79 | 1008.0 |
| 20260505020105 | 21 | 110 | 0.0 | 0.0 | 0.00 | 0.03 | 0.03 | 78 | 1008.1 |
| 20260505015602 | 21 | 116 | 0.0 | 0.0 | 0.00 | 0.03 | 0.03 | 77 | 1007.9 |
| 20260505015059 | 21 | 116 | 0.0 | 0.0 | 0.00 | 0.03 | 0.03 | 77 | 1008.1 |
| 20260505014555 | 21 | 116 | 0.0 | 0.0 | 0.00 | 0.03 | 0.03 | 76 | 1007.9 |
| 20260505014053 | 21 | 116 | 0.0 | 0.0 | 0.00 | 0.03 | 0.03 | 76 | 1008.1 |
| 20260505013550 | 21 | 118 | 0.0 | 0.0 | 0.00 | 0.03 | 0.03 | 77 | 1007.6 |
| 20260505013047 | 21 | 113 | 0.0 | 0.0 | 0.00 | 0.03 | 0.03 | 77 | 1007.8 |
| 20260505012545 | 22 | 118 | 0.0 | 0.0 | 0.00 | 0.03 | 0.03 | 75 | 1007.9 |
| 20260505012042 | 22 | 107 | 0.0 | 0.0 | 0.00 | 0.03 | 0.03 | 75 | 1007.7 |
| 20260505011537 | 22 | 108 | 0.0 | 0.0 | 0.00 | 0.03 | 0.03 | 73 | 1007.7 |
| 20260505011035 | 22 | 111 | 0.0 | 0.0 | 0.00 | 0.03 | 0.03 | 72 | 1007.8 |
| 20260505010530 | 22 | 110 | 0.0 | 0.0 | 0.00 | 0.03 | 0.03 | 72 | 1007.8 |
| 20260505010027 | 22 | 110 | 0.0 | 0.0 | 0.00 | 0.03 | 0.03 | 71 | 1007.6 |
| 20260505005523 | 23 | 110 | 0.0 | 0.0 | 0.00 | 0.03 | 0.03 | 69 | 1007.6 |
| 20260505005021 | 23 | 113 | 0.0 | 0.0 | 0.00 | 0.03 | 0.03 | 70 | 1007.7 |
| 20260505004517 | 23 | 112 | 0.0 | 0.0 | 0.00 | 0.03 | 0.03 | 70 | 1007.6 |
| 20260505004014 | 23 | 117 | 0.0 | 0.0 | 0.00 | 0.03 | 0.03 | 69 | 1007.4 |
| 20260505003511 | 23 | 108 | 0.0 | 0.0 | 0.00 | 0.03 | 0.03 | 68 | 1007.6 |
| 20260505003009 | 23 | 110 | 0.0 | 0.0 | 0.00 | 0.03 | 0.03 | 67 | 1007.6 |
| 20260505002504 | 23 | 104 | 0.0 | 0.0 | 0.00 | 0.03 | 0.03 | 65 | 1007.5 |
| 20260505002003 | 24 | 115 | 0.0 | 0.0 | 0.00 | 0.03 | 0.03 | 63 | 1007.7 |
| 20260505001500 | 24 | 108 | 0.0 | 0.0 | 0.00 | 0.03 | 0.03 | 64 | 1007.7 |
| 20260505000956 | 25 | 102 | 0.0 | 0.0 | 0.00 | 0.03 | 0.03 | 61 | 1007.8 |
| 20260505000454 | 25 | 116 | 0.0 | 1.6 | 0.00 | 0.03 | 0.03 | 60 | 1008.0 |
| 20260504235951 | 25 | 117 | 1.6 | 1.6 | 0.00 | 0.03 | 0.03 | 58 | 1008.0 |
| 20260504235448 | 25 | 109 | 0.0 | 0.0 | 0.00 | 0.03 | 0.03 | 60 | 1007.8 |
| 20260504234945 | 25 | 111 | 0.0 | 0.0 | 0.00 | 0.03 | 0.03 | 60 | 1008.0 |
| 20260504234442 | 25 | 165 | 0.0 | 1.6 | 0.00 | 0.03 | 0.03 | 57 | 1008.3 |
| 20260504233938 | 25 | 132 | 0.0 | 1.6 | 0.00 | 0.03 | 0.03 | 56 | 1008.1 |
| 20260504233434 | 25 | 98 | 0.0 | 0.0 | 0.00 | 0.03 | 0.03 | 58 | 1008.2 |
| 20260504232931 | 25 | 106 | 0.0 | 0.0 | 0.00 | 0.03 | 0.03 | 60 | 1008.2 |
| 20260504232428 | 25 | 111 | 0.0 | 0.0 | 0.00 | 0.03 | 0.03 | 59 | 1008.2 |
| 20260504231925 | 25 | 112 | 0.0 | 0.0 | 0.00 | 0.03 | 0.03 | 56 | 1008.3 |
| 20260504231422 | 25 | 140 | 1.6 | 1.6 | 0.00 | 0.03 | 0.03 | 56 | 1008.4 |
| 20260504230918 | 25 | 125 | 0.0 | 0.0 | 0.00 | 0.03 | 0.03 | 57 | 1008.4 |
| 20260504230415 | 25 | 115 | 0.0 | 0.0 | 0.00 | 0.03 | 0.03 | 56 | 1008.2 |
| 20260504225914 | 25 | 119 | 0.0 | 0.0 | 0.00 | 0.03 | 0.03 | 55 | 1008.4 |
| 20260504225410 | 25 | 105 | 1.6 | 3.2 | 0.00 | 0.03 | 0.03 | 55 | 1008.4 |
| 20260504224908 | 25 | 104 | 0.0 | 0.0 | 0.00 | 0.03 | 0.03 | 56 | 1008.6 |
| 20260504224404 | 25 | 110 | 0.0 | 0.0 | 0.00 | 0.03 | 0.03 | 56 | 1008.6 |
| 20260504223901 | 25 | 124 | 0.0 | 0.0 | 0.00 | 0.03 | 0.03 | 56 | 1008.4 |
| 20260504223356 | 26 | 119 | 0.0 | 0.0 | 0.00 | 0.03 | 0.03 | 54 | 1008.8 |
| 20260504222853 | 26 | 131 | 0.0 | 1.6 | 0.00 | 0.03 | 0.03 | 53 | 1008.6 |
| 20260504222350 | 26 | 152 | 0.0 | 0.0 | 0.00 | 0.03 | 0.03 | 53 | 1009.0 |
| 20260504221849 | 26 | 129 | 0.0 | 1.6 | 0.00 | 0.03 | 0.03 | 52 | 1008.8 |
| 20260504221345 | 26 | 103 | 1.6 | 1.6 | 0.00 | 0.03 | 0.03 | 52 | 1009.1 |
| 20260504220842 | 26 | 133 | 3.2 | 3.2 | 0.00 | 0.03 | 0.03 | 51 | 1009.0 |
| 20260504220339 | 26 | 128 | 0.0 | 1.6 | 0.00 | 0.03 | 0.03 | 50 | 1009.0 |
| 20260504215836 | 26 | 102 | 0.0 | 0.0 | 0.00 | 0.03 | 0.03 | 53 | 1008.9 |
| 20260504215332 | 26 | 136 | 0.0 | 1.6 | 0.00 | 0.03 | 0.03 | 50 | 1009.1 |
| 20260504214828 | 26 | 120 | 0.0 | 0.0 | 0.00 | 0.03 | 0.03 | 50 | 1009.3 |
| 20260504214326 | 26 | 127 | 1.6 | 1.6 | 0.00 | 0.03 | 0.03 | 49 | 1009.2 |
| 20260504213822 | 26 | 140 | 1.6 | 1.6 | 0.00 | 0.03 | 0.03 | 50 | 1009.4 |
| 20260504213318 | 26 | 129 | 1.6 | 1.6 | 0.00 | 0.03 | 0.03 | 49 | 1009.5 |
| 20260504212815 | 26 | 49 | 1.6 | 1.6 | 0.00 | 0.03 | 0.03 | 48 | 1009.6 |
| 20260504212311 | 26 | 127 | 1.6 | 1.6 | 0.00 | 0.03 | 0.03 | 48 | 1009.8 |
| 20260504211809 | 26 | 189 | 1.6 | 1.6 | 0.00 | 0.03 | 0.03 | 50 | 1009.9 |
| 20260504211305 | 26 | 121 | 1.6 | 1.6 | 0.00 | 0.03 | 0.03 | 50 | 1010.0 |
| 20260504210803 | 26 | 122 | 0.0 | 0.0 | 0.00 | 0.03 | 0.03 | 50 | 1010.1 |
| 20260504210300 | 26 | 79 | 1.6 | 1.6 | 0.00 | 0.03 | 0.03 | 49 | 1010.3 |
| 20260504205757 | 26 | 124 | 3.2 | 4.8 | 0.00 | 0.03 | 0.03 | 49 | 1010.2 |
| 20260504205255 | 26 | 98 | 0.0 | 0.0 | 0.00 | 0.03 | 0.03 | 52 | 1010.3 |
| 20260504204752 | 26 | 112 | 0.0 | 0.0 | 0.00 | 0.03 | 0.03 | 48 | 1010.5 |
| 20260504204251 | 26 | 136 | 0.0 | 1.6 | 0.00 | 0.03 | 0.03 | 49 | 1010.8 |
| 20260504203750 | 26 | 123 | 0.0 | 1.6 | 0.00 | 0.03 | 0.03 | 49 | 1010.5 |
| 20260504203246 | 27 | 143 | 1.6 | 3.2 | 0.00 | 0.03 | 0.03 | 47 | 1010.7 |
| 20260504202741 | 27 | 129 | 1.6 | 1.6 | 0.00 | 0.03 | 0.03 | 47 | 1010.9 |
| 20260504202239 | 26 | 115 | 0.0 | 0.0 | 0.00 | 0.03 | 0.03 | 46 | 1010.7 |
| 20260504201736 | 26 | 120 | 1.6 | 1.6 | 0.00 | 0.03 | 0.03 | 47 | 1010.9 |
| 20260504201233 | 26 | 124 | 1.6 | 1.6 | 0.00 | 0.03 | 0.03 | 47 | 1010.9 |
| 20260504200731 | 26 | 105 | 0.0 | 1.6 | 0.00 | 0.03 | 0.03 | 48 | 1011.1 |
| 20260504200226 | 26 | 154 | 1.6 | 1.6 | 0.00 | 0.03 | 0.03 | 49 | 1010.9 |
| 20260504195723 | 26 | 117 | 0.0 | 0.0 | 0.00 | 0.03 | 0.03 | 47 | 1011.4 |
| 20260504195219 | 26 | 160 | 3.2 | 3.2 | 0.00 | 0.03 | 0.03 | 47 | 1011.4 |
| 20260504194716 | 26 | 125 | 0.0 | 1.6 | 0.00 | 0.03 | 0.03 | 48 | 1011.4 |
| 20260504194212 | 26 | 119 | 0.0 | 0.0 | 0.00 | 0.03 | 0.03 | 47 | 1011.5 |
| 20260504193709 | 26 | 100 | 0.0 | 1.6 | 0.00 | 0.03 | 0.03 | 48 | 1011.8 |
| 20260504193206 | 26 | 83 | 6.4 | 8.0 | 0.00 | 0.03 | 0.03 | 47 | 1011.8 |
| 20260504192704 | 26 | 55 | 0.0 | 1.6 | 0.00 | 0.03 | 0.03 | 47 | 1011.7 |
| 20260504192202 | 25 | 104 | 1.6 | 3.2 | 0.00 | 0.03 | 0.03 | 48 | 1011.7 |
| 20260504191701 | 25 | 131 | 1.6 | 3.2 | 0.00 | 0.03 | 0.03 | 48 | 1011.9 |
| 20260504191156 | 26 | 49 | 1.6 | 3.2 | 0.00 | 0.03 | 0.03 | 47 | 1012.1 |
| 20260504190652 | 25 | 68 | 0.0 | 1.6 | 0.00 | 0.03 | 0.03 | 47 | 1012.0 |
| 20260504190149 | 25 | 100 | 0.0 | 1.6 | 0.00 | 0.03 | 0.03 | 48 | 1012.1 |
| 20260504185645 | 25 | 88 | 0.0 | 1.6 | 0.00 | 0.03 | 0.03 | 51 | 1012.2 |
| 20260504185142 | 25 | 94 | 1.6 | 1.6 | 0.00 | 0.03 | 0.03 | 48 | 1012.0 |
| 20260504184638 | 25 | 109 | 0.0 | 0.0 | 0.00 | 0.03 | 0.03 | 48 | 1012.2 |
| 20260504184133 | 25 | 122 | 1.6 | 1.6 | 0.00 | 0.03 | 0.03 | 50 | 1012.3 |
| 20260504183631 | 25 | 108 | 0.0 | 0.0 | 0.00 | 0.03 | 0.03 | 50 | 1012.5 |
| 20260504183128 | 25 | 59 | 0.0 | 0.0 | 0.00 | 0.03 | 0.03 | 47 | 1012.5 |
| 20260504182626 | 25 | 106 | 0.0 | 0.0 | 0.00 | 0.03 | 0.03 | 48 | 1012.9 |
| 20260504182123 | 25 | 131 | 1.6 | 3.2 | 0.00 | 0.03 | 0.03 | 49 | 1013.1 |
| 20260504181620 | 25 | 178 | 1.6 | 1.6 | 0.00 | 0.03 | 0.03 | 49 | 1013.0 |
| 20260504181118 | 25 | 122 | 1.6 | 3.2 | 0.00 | 0.03 | 0.03 | 50 | 1013.0 |
| 20260504180617 | 25 | 118 | 0.0 | 0.0 | 0.00 | 0.03 | 0.03 | 50 | 1013.0 |
| 20260504180115 | 25 | 114 | 0.0 | 0.0 | 0.00 | 0.03 | 0.03 | 50 | 1013.0 |
| 20260504175612 | 24 | 200 | 0.0 | 1.6 | 0.00 | 0.03 | 0.03 | 52 | 1012.9 |
| 20260504175109 | 24 | 127 | 0.0 | 1.6 | 0.00 | 0.03 | 0.03 | 51 | 1013.3 |
| 20260504174607 | 24 | 197 | 1.6 | 3.2 | 0.00 | 0.03 | 0.03 | 51 | 1013.5 |
| 20260504174103 | 23 | 116 | 0.0 | 1.6 | 0.00 | 0.03 | 0.03 | 49 | 1013.6 |
| 20260504173600 | 24 | 155 | 1.6 | 1.6 | 0.00 | 0.03 | 0.03 | 49 | 1013.7 |
| 20260504173058 | 24 | 175 | 1.6 | 3.2 | 0.00 | 0.03 | 0.03 | 48 | 1013.6 |
| 20260504172554 | 24 | 174 | 1.6 | 3.2 | 0.00 | 0.03 | 0.03 | 50 | 1013.8 |
| 20260504172050 | 24 | 98 | 1.6 | 3.2 | 0.00 | 0.03 | 0.03 | 50 | 1013.7 |
| 20260504171547 | 23 | 120 | 0.0 | 0.0 | 0.00 | 0.03 | 0.03 | 50 | 1013.6 |
| 20260504171044 | 23 | 77 | 3.2 | 4.8 | 0.00 | 0.03 | 0.03 | 52 | 1013.8 |
| 20260504170540 | 23 | 145 | 1.6 | 3.2 | 0.00 | 0.03 | 0.03 | 52 | 1013.8 |